When you browse on this site, cookies collect data to enhance your experience and personalize the content and advertising you see.
Visit our Privacy Policy to learn more. By continuing to use the site, you agree to this use of cookies and data.
  • In Deutschland
  • Länderverzeichnis
  • Für 7 Tage
  • Wassertemperatur
  • Satellitenkarten
  • Wetterkarte
  • Widgets
  • user-avatar
    Anmelden

    Stündliche Wetter Golocin

    Heute, 23 Mai, Donnerstag

    Zeit Temperatur Niederschläge Wind Luftdruck Luftfeuchtigkeit
    00:00 +13°C° 0 mm 2 m/S 746 mmHg 91%
    01:00 +13°C° 0 mm 1 m/S 746 mmHg 91%
    02:00 +13°C° 0 mm 2 m/S 746 mmHg 93%
    03:00 +12°C° 0 mm 2 m/S 746 mmHg 94%
    04:00 +12°C° 0 mm 2 m/S 747 mmHg 95%
    05:00 +12°C° 0.1 mm 3 m/S 747 mmHg 93%
    06:00 +14°C° 0.1 mm 3 m/S 747 mmHg 92%
    07:00 +15°C° 0.1 mm 4 m/S 748 mmHg 90%
    08:00 +15°C° 0.1 mm 4 m/S 748 mmHg 88%
    09:00 +16°C° 0.1 mm 5 m/S 748 mmHg 87%
    10:00 +16°C° 0.1 mm 5 m/S 748 mmHg 86%
    11:00 +16°C° 0 mm 5 m/S 748 mmHg 84%
    12:00 +17°C° 0 mm 5 m/S 748 mmHg 81%
    13:00 +17°C° 0 mm 6 m/S 748 mmHg 79%
    14:00 +16°C° 0 mm 6 m/S 748 mmHg 81%
    15:00 +16°C° 0 mm 6 m/S 748 mmHg 82%
    16:00 +16°C° 0 mm 6 m/S 748 mmHg 83%
    17:00 +15°C° 0 mm 6 m/S 748 mmHg 84%
    18:00 +14°C° 0 mm 5 m/S 749 mmHg 84%
    19:00 +13°C° 0 mm 5 m/S 749 mmHg 85%
    20:00 +12°C° 0 mm 4 m/S 749 mmHg 86%
    21:00 +11°C° 0 mm 3 m/S 749 mmHg 88%
    22:00 +10°C° 0 mm 3 m/S 750 mmHg 89%
    23:00 +10°C° 0 mm 3 m/S 750 mmHg 89%

    Morgen, 24 Mai, Freitag

    Zeit Temperatur Niederschläge Wind Luftdruck Luftfeuchtigkeit
    00:00 +9°C° 0 mm 3 m/S 750 mmHg 88%
    01:00 +9°C° 0 mm 3 m/S 750 mmHg 88%
    02:00 +9°C° 0 mm 3 m/S 750 mmHg 85%
    03:00 +9°C° 0 mm 3 m/S 750 mmHg 82%
    04:00 +10°C° 0 mm 3 m/S 750 mmHg 79%
    05:00 +10°C° 0 mm 3 m/S 750 mmHg 79%
    06:00 +11°C° 0 mm 3 m/S 750 mmHg 79%
    07:00 +12°C° 0 mm 3 m/S 750 mmHg 80%
    08:00 +14°C° 0 mm 3 m/S 750 mmHg 74%
    09:00 +17°C° 0 mm 3 m/S 750 mmHg 68%
    10:00 +19°C° 0 mm 3 m/S 750 mmHg 62%
    11:00 +19°C° 0 mm 3 m/S 750 mmHg 59%
    12:00 +20°C° 0 mm 3 m/S 749 mmHg 56%
    13:00 +20°C° 0 mm 3 m/S 749 mmHg 53%
    14:00 +20°C° 0 mm 3 m/S 749 mmHg 54%
    15:00 +20°C° 0 mm 3 m/S 748 mmHg 55%
    16:00 +20°C° 0 mm 3 m/S 748 mmHg 55%
    17:00 +19°C° 0 mm 2 m/S 748 mmHg 61%
    18:00 +18°C° 0 mm 2 m/S 748 mmHg 66%
    19:00 +16°C° 0 mm 1 m/S 748 mmHg 71%
    20:00 +15°C° 0 mm 1 m/S 748 mmHg 75%
    21:00 +14°C° 0 mm 1 m/S 748 mmHg 78%
    22:00 +13°C° 0 mm 1 m/S 748 mmHg 81%
    23:00 +13°C° 0 mm 1 m/S 748 mmHg 83%

    übermorgen, 25 Mai, Samstag

    Zeit Temperatur Niederschläge Wind Luftdruck Luftfeuchtigkeit
    00:00 +12°C° 0 mm 1 m/S 747 mmHg 85%
    01:00 +12°C° 0 mm 2 m/S 747 mmHg 87%
    02:00 +12°C° 0 mm 2 m/S 747 mmHg 88%
    03:00 +12°C° 0 mm 2 m/S 747 mmHg 88%
    04:00 +10°C° 0 mm 2 m/S 747 mmHg 89%
    05:00 +12°C° 0 mm 3 m/S 747 mmHg 83%
    06:00 +13°C° 0 mm 3 m/S 747 mmHg 78%
    07:00 +15°C° 0 mm 4 m/S 747 mmHg 72%
    08:00 +15°C° 0 mm 4 m/S 747 mmHg 72%
    09:00 +17°C° 0 mm 4 m/S 747 mmHg 72%
    10:00 +18°C° 0 mm 4 m/S 747 mmHg 72%
    11:00 +19°C° 0.1 mm 5 m/S 747 mmHg 67%
    12:00 +20°C° 0.1 mm 6 m/S 747 mmHg 62%
    13:00 +20°C° 0.1 mm 7 m/S 747 mmHg 56%
    14:00 +20°C° 0 mm 7 m/S 747 mmHg 58%
    15:00 +19°C° 0 mm 6 m/S 746 mmHg 59%
    16:00 +19°C° 0 mm 6 m/S 746 mmHg 61%
    17:00 +17°C° 0 mm 5 m/S 746 mmHg 67%
    18:00 +15°C° 0 mm 4 m/S 746 mmHg 73%
    19:00 +14°C° 0 mm 3 m/S 746 mmHg 79%
    20:00 +12°C° 0 mm 3 m/S 746 mmHg 81%
    21:00 +11°C° 0 mm 3 m/S 746 mmHg 83%
    22:00 +10°C° 0 mm 2 m/S 747 mmHg 84%
    23:00 +10°C° 0 mm 3 m/S 746 mmHg 85%

    26 Mai, Sonntag

    Zeit Temperatur Niederschläge Wind Luftdruck Luftfeuchtigkeit
    00:00 +10°C° 0 mm 3 m/S 746 mmHg 85%
    01:00 +10°C° 0 mm 3 m/S 746 mmHg 85%
    02:00 +10°C° 0 mm 4 m/S 746 mmHg 86%
    03:00 +10°C° 0 mm 4 m/S 745 mmHg 87%
    04:00 +9°C° 0 mm 5 m/S 745 mmHg 88%
    05:00 +9°C° 0 mm 5 m/S 745 mmHg 86%
    06:00 +9°C° 0 mm 6 m/S 745 mmHg 84%
    07:00 +10°C° 0 mm 6 m/S 745 mmHg 83%
    08:00 +9°C° 0.5 mm 6 m/S 745 mmHg 84%
    09:00 +9°C° 0.5 mm 6 m/S 745 mmHg 86%
    10:00 +9°C° 0.5 mm 7 m/S 745 mmHg 87%
    11:00 +10°C° 0.5 mm 8 m/S 745 mmHg 84%
    12:00 +10°C° 0.5 mm 8 m/S 745 mmHg 82%
    13:00 +10°C° 0.5 mm 9 m/S 745 mmHg 79%
    14:00 +10°C° 0.2 mm 9 m/S 745 mmHg 77%
    15:00 +10°C° 0.2 mm 9 m/S 745 mmHg 75%
    16:00 +10°C° 0.2 mm 9 m/S 745 mmHg 73%
    17:00 +10°C° 0 mm 8 m/S 745 mmHg 73%
    18:00 +9°C° 0 mm 6 m/S 745 mmHg 73%
    19:00 +9°C° 0 mm 5 m/S 746 mmHg 73%
    20:00 +8°C° 0 mm 5 m/S 746 mmHg 76%
    21:00 +7°C° 0 mm 5 m/S 746 mmHg 79%
    22:00 +6°C° 0 mm 4 m/S 747 mmHg 82%
    23:00 +6°C° 0 mm 4 m/S 747 mmHg 84%

    27 Mai, Montag

    Zeit Temperatur Niederschläge Wind Luftdruck Luftfeuchtigkeit
    00:00 +5°C° 0 mm 4 m/S 747 mmHg 86%
    01:00 +5°C° 0 mm 4 m/S 747 mmHg 89%
    02:00 +4°C° 0 mm 3 m/S 747 mmHg 91%
    03:00 +4°C° 0 mm 3 m/S 747 mmHg 92%
    04:00 +4°C° 0 mm 3 m/S 747 mmHg 94%
    05:00 +7°C° 0 mm 3 m/S 747 mmHg 88%
    06:00 +9°C° 0 mm 3 m/S 747 mmHg 82%
    07:00 +11°C° 0 mm 4 m/S 747 mmHg 76%
    08:00 +13°C° 0 mm 4 m/S 747 mmHg 71%
    09:00 +14°C° 0 mm 5 m/S 747 mmHg 67%
    10:00 +16°C° 0 mm 5 m/S 746 mmHg 63%
    11:00 +17°C° 0 mm 5 m/S 746 mmHg 63%
    12:00 +20°C° 0 mm 5 m/S 745 mmHg 64%
    13:00 +21°C° 0 mm 5 m/S 745 mmHg 64%
    14:00 +21°C° 0.3 mm 6 m/S 744 mmHg 66%
    15:00 +21°C° 0.3 mm 6 m/S 744 mmHg 68%
    16:00 +21°C° 0.3 mm 6 m/S 744 mmHg 70%
    17:00 +20°C° 0.5 mm 5 m/S 743 mmHg 74%
    18:00 +19°C° 0.5 mm 4 m/S 743 mmHg 78%
    19:00 +18°C° 0.5 mm 3 m/S 743 mmHg 82%
    20:00 +17°C° 0.1 mm 3 m/S 743 mmHg 85%
    21:00 +16°C° 0.1 mm 3 m/S 743 mmHg 88%
    22:00 +14°C° 0.1 mm 4 m/S 743 mmHg 91%
    23:00 +14°C° 0.1 mm 3 m/S 743 mmHg 91%

    28 Mai, Dienstag

    Zeit Temperatur Niederschläge Wind Luftdruck Luftfeuchtigkeit
    00:00 +14°C° 0.1 mm 3 m/S 743 mmHg 92%
    01:00 +13°C° 0.1 mm 3 m/S 742 mmHg 92%
    02:00 +13°C° 0.1 mm 3 m/S 742 mmHg 93%
    03:00 +14°C° 0.1 mm 2 m/S 742 mmHg 93%
    04:00 +14°C° 0.1 mm 2 m/S 742 mmHg 94%
    05:00 +15°C° 0.7 mm 2 m/S 742 mmHg 93%
    06:00 +15°C° 0.7 mm 2 m/S 742 mmHg 92%
    07:00 +16°C° 0.7 mm 2 m/S 742 mmHg 90%
    08:00 +17°C° 0.4 mm 3 m/S 742 mmHg 89%
    09:00 +17°C° 0.4 mm 3 m/S 742 mmHg 88%
    10:00 +18°C° 0.4 mm 3 m/S 742 mmHg 87%
    11:00 +17°C° 1 mm 4 m/S 742 mmHg 89%
    12:00 +15°C° 1 mm 4 m/S 742 mmHg 92%
    13:00 +13°C° 1 mm 4 m/S 742 mmHg 94%
    14:00 +14°C° 0 mm 4 m/S 742 mmHg 90%
    15:00 +15°C° 0 mm 4 m/S 742 mmHg 85%
    16:00 +17°C° 0 mm 4 m/S 742 mmHg 81%
    17:00 +15°C° 0 mm 4 m/S 743 mmHg 83%
    18:00 +14°C° 0 mm 3 m/S 743 mmHg 85%
    19:00 +14°C° 0 mm 2 m/S 743 mmHg 86%
    20:00 +13°C° 0 mm 2 m/S 744 mmHg 88%
    21:00 +12°C° 0 mm 2 m/S 744 mmHg 90%
    22:00 +11°C° 0 mm 1 m/S 745 mmHg 92%
    23:00 +11°C° 0 mm 1 m/S 745 mmHg 92%
    Mehr zeigen